Tracking 28520 objects as of 29-Feb-2024
HD Live streaming from Space Station
objects crossing your sky now

NOAA 16 DEB

Track NOAA 16 DEB now!
10-day predictions


NORAD ID: 42401
Int'l Code: 2000-055SV
Perigee: 732.0 km
Apogee: 816.9 km
Inclination: 99.0 °
Period: 100.2 minutes
Semi major axis: 7145 km
RCS: Unknown
Launch date: September 21, 2000
Source: United States (US)
Launch site: AIR FORCE WESTERN TEST RANGE (AFWTR)

Note: This is SATELLITE DEBRIS
Your satellite tracking list
Your tracking list is empty




NASA's NSSDC Master Catalog

Two Line Element Set (TLE):
1 42401U 00055SV  24057.25291762  .00009047  00000-0  29813-2 0  9998
2 42401  98.9810 229.5965 0059402  49.8938 310.7432 14.37350262416449
Source of the keplerian elements: AFSPC